Вернуться в каталог

TITAN 3C TRANSTAGE DEB

АктивенGEO
NORAD 33513·DEBRIS·🇺🇸 United States

Запущен Sep 26, 1968 с Cape Canaveral Space Force Station

Loading…

TLE

СвежийSource: Space-Track

Эпоха: Sep 14, 2026, 14:24 UTC

1 33513U 68081P   26257.60006111 -.00000190  00000-0  00000-0 0  9996
2 33513   2.2288  52.0942 0083999 286.4016 356.8811  1.01393497 48771

Отслеживайте TITAN 3C TRANSTAGE DEB в реальном времени с AllMySat

Download on the App Store